DW7653 Weather Reports


Display with metric or nautical units.
time (UTC)temp
F
wind
direction
speed
MPH
gust
MPH
rain 1hr
in
rain 24hr
in
rain mn
in
humidity
%
barometer
mb
20260505041555 63 360 0.0 0.0 0.00 0.00 0.00 53 1014.6
20260505040053 64 360 0.0 0.0 0.00 0.00 0.00 52 1014.5
20260505034551 64 360 0.0 0.0 0.00 0.00 0.00 51 1014.6
20260505033052 64 360 0.0 0.0 0.00 0.00 0.00 50 1014.6
20260505031550 64 360 0.0 0.0 0.00 0.00 0.00 48 1014.6
20260505030050 64 360 0.0 0.0 0.00 0.00 0.00 46 1014.6
20260505024548 64 360 0.0 0.0 0.00 0.00 0.00 48 1014.5
20260505023055 64 360 0.0 0.0 0.00 0.00 0.00 46 1014.4
20260505021548 64 360 0.0 0.0 0.00 0.00 0.00 46 1014.2
20260505020049 64 360 0.0 0.0 0.00 0.00 0.00 47 1014.2
20260505014547 64 360 0.0 0.0 0.00 0.00 0.00 45 1014.1
20260505013046 66 360 0.0 0.0 0.00 0.00 0.00 45 1013.7
20260505011551 67 360 0.0 0.0 0.00 0.00 0.00 42 1013.6
20260505010049 69 360 0.0 0.0 0.00 0.00 0.00 40 1013.5
20260505004544 70 360 0.0 0.0 0.00 0.00 0.00 37 1013.2
20260505003044 71 360 0.0 0.0 0.00 0.00 0.00 35 1013.1
20260505001543 72 360 0.0 0.0 0.00 0.00 0.00 34 1013.0
20260505000044 73 360 0.0 0.0 0.00 0.00 0.00 32 1012.9
20260504234543 74 360 0.0 0.0 0.00 0.00 0.00 30 1012.8
20260504233044 74 360 0.0 0.0 0.00 0.00 0.00 30 1012.7
20260504231542 75 360 0.0 0.0 0.00 0.00 0.00 29 1012.6
20260504230041 75 360 0.0 0.0 0.00 0.00 0.00 28 1012.7
20260504224541 75 360 0.0 0.0 0.00 0.00 0.00 28 1012.7
20260504223039 76 360 0.0 0.0 0.00 0.00 0.00 27 1012.7
20260504221541 76 360 0.0 0.0 0.00 0.00 0.00 26 1012.7
20260504220043 77 360 0.0 0.0 0.00 0.00 0.00 27 1012.8
20260504214548 78 360 0.0 0.0 0.00 0.00 0.00 25 1012.7
20260504213047 79 360 0.0 0.0 0.00 0.00 0.00 25 1012.7
20260504211537 80 360 0.0 0.0 0.00 0.00 0.00 24 1012.8
20260504210035 80 360 0.0 0.0 0.00 0.00 0.00 24 1012.9
20260504204534 80 360 0.0 0.0 0.00 0.00 0.00 23 1013.0
20260504203033 80 360 0.0 0.0 0.00 0.00 0.00 23 1013.1
20260504201530 80 360 0.0 0.0 0.00 0.00 0.00 23 1013.2
20260504200038 80 360 0.0 0.0 0.00 0.00 0.00 23 1013.3
20260504194525 79 360 0.0 0.0 0.00 0.00 0.00 24 1013.5
20260504193023 78 360 0.0 0.0 0.00 0.00 0.00 26 1013.7
20260504191535 78 360 0.0 0.0 0.00 0.00 0.00 23 1013.9
20260504190016 77 360 0.0 0.0 0.00 0.00 0.00 27 1014.2
20260504184513 75 360 0.0 0.0 0.00 0.00 0.00 29 1014.1
20260504183020 75 360 0.0 0.0 0.00 0.00 0.00 29 1014.2
20260504181506 74 360 0.0 0.0 0.00 0.00 0.00 27 1014.7
20260504180006 73 360 0.0 0.0 0.00 0.00 0.00 29 1014.6
20260504174503 73 360 0.0 0.0 0.00 0.00 0.00 29 1014.8
20260504173004 73 360 0.0 0.0 0.00 0.00 0.00 29 1015.0
20260504171501 73 360 0.0 0.0 0.00 0.00 0.00 28 1015.1
20260504170108 74 360 0.0 0.0 0.00 0.00 0.00 25 1015.5
20260504081530 43 360 0.0 0.0 0.00 0.00 0.00 66 1016.9